Wind_Speed
17 15 20 24 24 23 23 24 25 24 22 21 20 19 18 16 14 12 11 9 9 7 6 4 3 2 3 4 3 5 5 6 7
24 17 18 22 25 26 25 25 26 27 27 26 24 24 22 19 17 15 14 12 11 10 8 6 5 4 3 1 1 3 3 4 5
16 23 18 20 23 28 28 28 27 27 28 28 28 27 25 23 22 20 18 16 15 14 12 10 9 8 7 6 4 2 0 2 3
16 19 24 22 21 24 29 30 30 30 29 30 30 30 29 28 26 25 24 22 20 19 17 15 13 12 10 9 8 7 6 4 3
9 16 16 30 26 23 24 28 30 32 32 32 32 32 31 31 31 30 30 27 26 24 22 21 18 17 15 14 12 11 9 9 8
12 9 12 25 29 26 26 25 28 31 33 35 36 35 34 33 33 33 34 33 32 30 28 25 24 22 21 19 16 16 14 13 12
15 16 15 14 20 33 32 28 28 28 31 34 38 40 37 37 36 36 36 36 36 35 33 31 29 28 26 25 22 20 19 18 16
21 20 19 20 20 20 20 31 30 32 32 32 34 38 40 40 39 39 39 38 39 37 36 36 34 32 31 29 28 26 24 22 22
24 24 25 24 24 23 24 25 25 26 27 30 38 35 35 36 40 41 40 41 41 42 39 39 38 36 35 33 32 32 30 27 26
29 28 28 28 28 28 28 29 28 29 30 30 31 33 41 39 36 37 40 40 42 44 44 43 41 40 39 37 36 37 36 33 30
36 35 35 34 34 34 32 31 32 33 34 34 34 32 32 39 46 45 38 38 42 45 46 45 46 45 43 41 41 40 38 38 35
42 42 42 41 40 40 39 38 37 36 36 38 39 37 37 38 38 39 48 44 39 44 48 47 48 48 47 46 45 44 42 42 41
47 47 47 48 48 47 46 44 44 43 42 41 40 41 41 41 41 42 41 40 44 46 45 50 50 50 49 50 48 47 47 46 45
54 53 52 52 53 52 52 53 52 50 48 47 46 45 45 45 46 45 48 46 43 41 49 47 51 52 52 52 52 50 49 49 48
57 58 58 58 57 57 57 57 57 58 57 55 53 52 51 48 49 49 49 50 49 49 47 48 47 54 54 55 56 54 53 52 52
61 61 61 61 62 63 62 62 61 61 61 61 61 60 59 57 54 53 54 56 56 56 54 52 50 53 49 55 54 56 57 56 55
65 65 66 65 65 66 66 67 67 67 67 66 65 64 64 66 65 62 60 59 59 58 58 57 54 54 55 50 53 55 56 59 60
70 70 70 70 70 71 71 70 71 70 71 72 72 71 70 68 71 71 69 67 65 63 60 59 58 59 58 58 61 56 58 59 61
77 77 76 76 75 75 76 77 77 77 76 76 77 77 77 75 72 74 77 74 72 70 70 65 62 61 63 59 50 56 53 54 64
85 85 85 84 83 83 83 82 82 83 84 84 83 84 84 84 82 78 77 81 81 78 76 73 71 67 64 63 61 61 66 48 60
Wind_Direction
218 241 231 226 230 230 227 223 220 224 225 226 228 227 227 223 220 217 216 209 203 199 190 174 169 139 100 88 84 84 68 66 66
233 217 251 237 229 232 235 234 229 223 224 227 229 231 229 228 231 229 228 229 225 221 220 216 220 226 232 179 84 68 63 41 51
264 221 227 241 236 232 235 238 238 234 228 228 230 232 234 231 231 235 239 238 239 240 238 233 235 235 245 255 247 228 102 51 10
263 254 232 236 243 235 233 235 238 238 236 232 233 236 235 237 237 238 239 242 242 242 247 248 246 249 243 249 261 263 255 260 290
307 263 248 234 233 246 240 239 241 240 238 236 238 238 240 239 240 240 243 243 246 246 246 251 252 255 256 253 253 261 262 267 268
280 258 289 239 231 246 244 241 239 242 244 241 241 241 240 240 241 244 245 247 247 247 247 248 253 255 258 258 257 257 262 263 268
270 265 263 262 259 248 251 251 252 247 245 244 245 248 246 241 240 242 244 247 249 249 249 250 249 253 255 258 259 259 259 262 265
270 268 265 265 262 263 272 257 255 256 260 257 249 247 247 247 244 242 244 246 249 250 250 251 251 251 253 256 259 259 259 260 262
271 272 269 268 267 264 264 262 267 272 271 274 262 255 254 251 246 246 245 246 249 250 249 251 252 253 252 254 256 259 259 260 261
275 272 270 269 268 265 262 262 262 258 262 268 267 268 258 257 256 251 248 247 248 251 249 249 249 250 252 252 254 256 259 259 260
277 277 276 274 272 269 265 263 263 262 261 260 258 258 262 264 263 255 254 253 249 250 251 250 250 248 249 250 252 254 258 261 260
275 276 276 276 275 275 274 271 266 264 263 263 262 261 257 258 260 265 257 254 254 253 252 250 250 251 249 249 251 251 254 256 260
273 273 273 273 273 274 273 273 272 272 269 266 264 264 262 259 258 256 261 261 255 254 253 253 252 251 251 251 249 250 252 253 256
271 271 271 270 270 270 270 271 271 271 270 271 270 266 263 263 261 260 253 257 261 257 259 259 255 254 251 251 252 249 250 253 254
267 268 268 269 270 270 269 269 268 267 269 270 268 269 268 264 261 261 256 252 254 256 258 263 262 253 254 250 250 253 250 249 252
268 266 266 267 267 268 268 269 268 267 264 264 267 269 268 267 265 261 259 259 258 259 256 257 260 256 256 252 251 250 251 250 248
268 268 268 268 267 266 266 266 266 267 267 265 263 263 267 266 267 266 263 261 261 260 260 256 257 258 265 262 246 255 253 250 252
269 269 268 267 268 268 267 266 264 264 265 266 265 264 261 262 267 265 264 265 263 261 259 259 258 256 257 261 262 263 255 251 249
271 269 268 268 267 266 266 266 267 266 265 265 265 265 264 262 258 263 265 262 262 263 262 260 257 257 257 256 258 251 250 255 251
272 271 270 268 266 265 265 265 264 265 265 265 263 264 264 264 263 257 258 262 261 261 261 261 259 255 253 254 251 256 256 263 255
Height
5843 5846 5847 5847 5849 5850 5851 5853 5856 5859 5862 5862 5863 5864 5865 5867 5867 5868 5868 5869 5869 5870 5870 5870 5871 5871 5871 5870 5869 5869 5869 5869 5868
5840 5842 5846 5846 5845 5847 5849 5851 5853 5855 5858 5860 5861 5862 5863 5865 5867 5867 5868 5869 5869 5869 5870 5870 5870 5871 5871 5870 5870 5870 5870 5870 5869
5839 5840 5841 5843 5843 5844 5845 5847 5849 5852 5855 5856 5858 5859 5861 5863 5864 5865 5866 5867 5868 5869 5869 5869 5869 5870 5870 5870 5870 5870 5870 5870 5870
5835 5836 5838 5840 5840 5841 5841 5843 5845 5848 5851 5853 5855 5856 5858 5860 5861 5863 5863 5864 5865 5866 5868 5868 5869 5868 5869 5869 5870 5870 5869 5869 5869
5832 5833 5833 5835 5837 5838 5838 5839 5840 5842 5845 5848 5850 5852 5853 5856 5858 5859 5860 5861 5862 5863 5865 5866 5867 5867 5867 5867 5868 5868 5868 5868 5868
5829 5830 5831 5832 5833 5833 5835 5835 5835 5837 5840 5843 5844 5846 5849 5850 5852 5854 5855 5856 5857 5858 5860 5861 5863 5864 5864 5865 5866 5866 5866 5866 5866
5826 5827 5827 5827 5828 5829 5829 5831 5832 5832 5833 5836 5838 5840 5843 5845 5846 5847 5849 5850 5851 5852 5855 5856 5858 5859 5860 5861 5862 5863 5863 5863 5864
5821 5821 5822 5823 5823 5823 5824 5826 5826 5828 5829 5830 5831 5833 5835 5839 5841 5842 5843 5845 5845 5848 5849 5850 5852 5854 5855 5856 5858 5859 5859 5860 5860
5815 5815 5816 5816 5817 5818 5817 5819 5820 5821 5822 5824 5826 5827 5828 5829 5833 5835 5837 5839 5840 5841 5843 5844 5846 5848 5849 5851 5852 5854 5855 5856 5856
5808 5808 5809 5809 5811 5812 5812 5813 5812 5814 5815 5817 5818 5819 5821 5822 5825 5827 5829 5831 5832 5833 5836 5838 5839 5841 5843 5845 5847 5847 5849 5850 5852
5800 5800 5801 5801 5802 5804 5804 5805 5806 5807 5808 5808 5810 5811 5813 5814 5815 5819 5821 5823 5825 5824 5826 5829 5831 5834 5836 5838 5839 5841 5843 5844 5846
5791 5791 5791 5792 5793 5793 5794 5795 5797 5798 5800 5801 5802 5803 5804 5805 5806 5807 5811 5814 5816 5817 5817 5819 5821 5824 5828 5830 5831 5833 5835 5836 5838
5780 5781 5781 5781 5782 5782 5783 5784 5786 5787 5789 5791 5792 5794 5795 5796 5797 5797 5800 5803 5806 5808 5808 5808 5811 5814 5816 5819 5822 5825 5826 5828 5830
5768 5768 5768 5769 5770 5770 5771 5772 5773 5775 5777 5779 5781 5783 5785 5785 5786 5788 5789 5792 5795 5797 5798 5799 5802 5803 5806 5809 5810 5814 5816 5818 5820
5755 5755 5756 5756 5756 5757 5758 5759 5760 5762 5763 5765 5768 5769 5770 5773 5775 5775 5779 5780 5783 5786 5788 5789 5790 5793 5795 5797 5800 5803 5805 5808 5810
5739 5740 5740 5741 5742 5742 5743 5744 5746 5747 5749 5752 5753 5755 5755 5758 5761 5763 5765 5766 5771 5774 5777 5779 5780 5782 5783 5786 5788 5790 5793 5796 5799
5722 5722 5723 5724 5725 5726 5727 5728 5729 5730 5731 5734 5738 5741 5741 5743 5744 5747 5750 5752 5755 5760 5762 5765 5768 5770 5772 5775 5776 5779 5781 5784 5786
5703 5704 5704 5705 5706 5706 5707 5709 5711 5713 5713 5713 5717 5721 5726 5730 5727 5729 5734 5736 5739 5743 5747 5751 5755 5757 5759 5762 5763 5766 5768 5771 5773
5681 5682 5683 5684 5685 5687 5688 5689 5690 5692 5694 5695 5697 5699 5703 5708 5718 5714 5712 5720 5723 5727 5728 5735 5739 5742 5745 5748 5751 5753 5755 5757 5760
5657 5657 5658 5660 5662 5664 5665 5667 5668 5670 5671 5673 5676 5677 5678 5681 5689 5701 5701 5697 5703 5708 5713 5716 5720 5724 5728 5732 5735 5739 5738 5742 5746